[[{"header":{"parameterUnit":"m.s-1","parameterCategory":2,"la1":30.2992,"la2":30.254,"lo1":-89.0895,"lo2":-89.0443,"dy":0.0025,"dx":0.0025,"nx":19,"ny":19,"refTime":"2026-04-15T21:00:00:Z","depth":"0","parameterNumber":2,"parameterNumberName":"U-component_of_CURRENTS"},"data":[0,0,0,-0.0561,-0.0561,-0.0583,-0.0583,-0.053,-0.0529,0,0,0,0,0,0,0,0,0,0,0,-0.0548,-0.0548,-0.0561,-0.0562,-0.0583,-0.0583,-0.053,-0.0529,0,0,0,0,0,0,0,0,0,0,0,-0.0548,-0.0548,-0.0548,-0.0562,-0.0583,-0.0583,-0.053,-0.0533,0,0,0,0,0,0,0,0,0,0,-0.0521,-0.0526,-0.0548,-0.0548,-0.0562,-0.0583,-0.0583,-0.0534,-0.0533,-0.0499,0,-0.0504,0,-0.0518,-0.0524,-0.0524,0,0,0,-0.0557,-0.0527,-0.0532,-0.0549,-0.0562,-0.0583,-0.0572,-0.0534,-0.0532,-0.0497,-0.0504,-0.0502,-0.0517,-0.0524,-0.0524,-0.0531,-0.0532,0,0,-0.0556,-0.0551,-0.0533,-0.0531,-0.0568,-0.0571,-0.0573,-0.0534,-0.0531,-0.0504,-0.0502,-0.0516,-0.0524,-0.0523,-0.053,-0.0531,0,0,0,-0.0555,-0.055,-0.0557,-0.0532,-0.0544,-0.0572,-0.0574,-0.0533,-0.0535,-0.0501,-0.0515,-0.0523,-0.0522,-0.053,-0.0531,-0.0661,0,0,0,-0.0554,-0.055,-0.0556,-0.0553,-0.0545,-0.0551,-0.0573,-0.0538,-0.0534,-0.0516,-0.0523,-0.0521,-0.0529,-0.053,-0.0656,-0.0716,0,0,0,-0.0547,-0.0549,-0.0552,-0.0553,-0.0566,-0.0552,-0.0553,-0.0538,-0.0542,-0.0524,-0.0521,-0.0529,-0.053,-0.0652,-0.0708,-0.0876,0,0,0,-0.0541,-0.0555,-0.0552,-0.0582,-0.0565,-0.0612,-0.0553,-0.0575,-0.0568,-0.0523,-0.0529,-0.0531,-0.065,-0.0703,-0.0869,-0.0824,-0.0852,0,0,-0.0558,-0.0557,-0.0579,-0.0578,-0.0647,-0.0609,-0.0674,-0.0633,-0.0576,-0.0533,-0.0534,-0.0658,-0.0707,-0.0874,-0.0911,-0.0937,0,0,0,-0.0586,-0.0605,-0.0626,-0.0664,-0.0687,-0.0729,-0.0695,-0.0699,-0.069,-0.0579,-0.0652,-0.0679,-0.0781,-0.0738,-0.0759,-0.0677,-0.0538,-0.0537,-0.0537,-0.0599,-0.0636,-0.069,-0.0739,-0.0772,-0.0809,-0.0859,-0.0849,-0.076,-0.079,-0.0781,-0.0988,-0.094,-0.0956,-0.0871,-0.0774,-0.0774,-0.0775,-0.0775,-0.0645,-0.0676,-0.074,-0.08,-0.0856,-0.0896,-0.0976,-0.0969,-0.1061,-0.0923,-0.1017,-0.087,-0.0987,-0.0887,-0.0783,-0.0782,-0.0781,-0.078,-0.0779,-0.0645,-0.0665,-0.071,-0.0801,-0.088,-0.093,-0.1061,-0.1099,-0.117,-0.1258,-0.1221,-0.1217,-0.114,-0.1299,-0.13,-0.1301,-0.1302,-0.1302,-0.1303,-0.0608,-0.0663,-0.0707,-0.0797,-0.0841,-0.0931,-0.1098,-0.1226,-0.1359,-0.137,-0.137,-0.119,-0.1149,-0.1139,-0.1319,-0.1316,-0.1314,-0.1312,-0.1311,-0.0604,-0.0614,-0.0678,-0.0724,-0.0847,-0.0938,-0.1118,-0.1377,-0.1544,-0.1631,-0.1427,-0.1461,-0.1431,-0.141,-0.1407,-0.1646,-0.1646,-0.1646,-0.1646,-0.0578,-0.0597,-0.0663,-0.0727,-0.0835,-0.0944,-0.1166,-0.1363,-0.1499,-0.1492,-0.1521,-0.1347,-0.1337,-0.1291,-0.1273,-0.1261,-0.1459,-0.1459,-0.1458,-0.058,-0.0597,-0.0633,-0.0705,-0.0819,-0.0961,-0.1114,-0.1245,-0.1373,-0.1444,-0.1431,-0.1439,-0.1169,-0.116,-0.1063,-0.1044,-0.1015,0,0]},{"header":{"parameterUnit":"m.s-1","parameterCategory":2,"la1":30.2992,"la2":30.254,"lo1":-89.0895,"lo2":-89.0443,"dy":0.0025,"dx":0.0025,"nx":19,"ny":19,"refTime":"2026-04-15T21:00:00:Z","depth":"0","parameterNumber":3,"parameterNumberName":"V-component_of_CURRENTS"},"data":[0,0,0,0.0182,0.0183,0.0309,0.031,0.0555,0.0557,0,0,0,0,0,0,0,0,0,0,0,0.0138,0.0138,0.0181,0.0184,0.0309,0.031,0.0554,0.0557,0,0,0,0,0,0,0,0,0,0,0,0.0138,0.0138,0.0139,0.0184,0.0309,0.031,0.0554,0.0444,0,0,0,0,0,0,0,0,0,0,0.0314,0.0257,0.0138,0.0139,0.0184,0.0309,0.031,0.0438,0.0451,0.0513,0,0.0515,0,0.0533,0.0573,0.0574,0,0,0,0.0209,0.0246,0.0271,0.0139,0.0185,0.0309,0.026,0.0445,0.046,0.0531,0.0518,0.0527,0.0537,0.0574,0.0575,0.0759,0.076,0,0,0.0202,0.018,0.0261,0.0279,0.0198,0.0256,0.0263,0.0453,0.0467,0.0519,0.0533,0.0541,0.0576,0.0578,0.0759,0.0759,0,0,0,0.0165,0.0175,0.0194,0.027,0.0281,0.0259,0.0268,0.0459,0.0462,0.0535,0.0544,0.0577,0.058,0.0759,0.0759,0.0643,0,0,0,0.0162,0.0151,0.019,0.0181,0.0276,0.0361,0.0269,0.0449,0.0471,0.0543,0.0577,0.0582,0.0759,0.0759,0.0645,0.0575,0,0,0,0.0136,0.0149,0.0154,0.0179,0.0221,0.0358,0.0373,0.0454,0.0476,0.0574,0.0583,0.0758,0.0759,0.0648,0.0581,0.054,0,0,0,0.0123,0.0109,0.0154,0.0152,0.0219,0.0293,0.0372,0.045,0.0526,0.0578,0.0759,0.0759,0.0648,0.0584,0.0543,0.0494,0.0475,0,0,0.0091,0.0105,0.0103,0.0145,0.0174,0.0279,0.0345,0.0472,0.056,0.0707,0.0711,0.0645,0.0581,0.0541,0.0527,0.0506,0,0,0,0.0085,0.0077,0.0097,0.0126,0.0201,0.0277,0.0409,0.047,0.0583,0.0604,0.0689,0.0654,0.0631,0.061,0.0595,0.0824,0.0762,0.0762,0.0762,0.0027,0.0052,0.0051,0.01,0.0161,0.0293,0.0352,0.0468,0.0567,0.0594,0.0592,0.0525,0.0505,0.0492,0.073,0.0642,0.0642,0.0642,0.0641,-0.0037,-0.0044,0.0005,0.0007,0.0102,0.0175,0.0321,0.0381,0.0457,0.0541,0.0525,0.053,0.0467,0.0728,0.0635,0.0636,0.0637,0.0637,0.0638,-0.0083,-0.0087,-0.0086,-0.0073,-0.0027,0.0092,0.0109,0.0227,0.0338,0.0325,0.0343,0.0345,0.0544,0.0329,0.0328,0.0328,0.0328,0.0327,0.0327,-0.013,-0.0132,-0.0165,-0.0151,-0.0148,-0.0116,-0.0013,0.0017,0.0113,0.0209,0.021,0.0561,0.043,0.0408,0.0319,0.0321,0.0322,0.0322,0.0323,-0.0193,-0.0191,-0.0247,-0.0266,-0.0287,-0.0339,-0.0242,-0.0192,-0.0123,-0.0096,0.0374,0.0165,0.0197,0.0212,0.0187,0.0045,0.0045,0.0045,0.0045,-0.0229,-0.0235,-0.0316,-0.0375,-0.0431,-0.0438,-0.0508,-0.0353,0.0034,0.0288,0.0393,0.0494,0.0495,0.0553,0.056,0.0548,0.0501,0.0502,0.0504,-0.0268,-0.0286,-0.0358,-0.0422,-0.0499,-0.0576,-0.0644,-0.0429,0.0224,0.0552,0.0724,0.0704,0.0888,0.087,0.0994,0.0985,0.0975,0,0]}],[{"header":{"parameterUnit":"m.s-1","parameterCategory":2,"la1":30.2992,"la2":30.254,"lo1":-89.0895,"lo2":-89.0443,"dy":0.0025,"dx":0.0025,"nx":19,"ny":19,"refTime":"2026-04-15T21:00:00:Z","depth":"2","parameterNumber":2,"parameterNumberName":"U-component_of_CURRENTS"},"data":[0,0,0,-0.0678,-0.0678,-0.0686,-0.0686,-0.0615,-0.0614,0,0,0,0,0,0,0,0,0,0,0,-0.068,-0.068,-0.0678,-0.0678,-0.0686,-0.0686,-0.0615,-0.0614,0,0,0,0,0,0,0,0,0,0,0,-0.068,-0.068,-0.068,-0.0678,-0.0686,-0.0686,-0.0616,-0.0631,0,0,0,0,0,0,0,0,0,0,-0.0633,-0.0634,-0.068,-0.068,-0.0678,-0.0686,-0.0686,-0.0632,-0.063,-0.0587,0,-0.0592,0,-0.0595,-0.0607,-0.0607,0,0,0,-0.0682,-0.0636,-0.0648,-0.068,-0.0678,-0.0686,-0.0684,-0.0632,-0.0628,-0.0583,-0.0591,-0.0589,-0.0594,-0.0607,-0.0606,-0.0591,-0.0592,0,0,-0.0681,-0.0669,-0.065,-0.0646,-0.0682,-0.0683,-0.0684,-0.0631,-0.062,-0.0591,-0.0587,-0.0592,-0.0606,-0.0605,-0.059,-0.0591,0,0,0,-0.0678,-0.0668,-0.0683,-0.0649,-0.0653,-0.0684,-0.0684,-0.0623,-0.0631,-0.0587,-0.0592,-0.0605,-0.0604,-0.059,-0.0591,-0.0703,0,0,0,-0.0678,-0.0666,-0.0683,-0.0674,-0.0655,-0.0645,-0.0677,-0.0635,-0.0629,-0.0592,-0.0605,-0.0603,-0.0589,-0.059,-0.0699,-0.076,0,0,0,-0.0679,-0.0665,-0.067,-0.0673,-0.0676,-0.0647,-0.0652,-0.0634,-0.0631,-0.0607,-0.0603,-0.0589,-0.059,-0.0695,-0.0753,-0.0922,0,0,0,-0.0661,-0.0673,-0.067,-0.0693,-0.0676,-0.0729,-0.0653,-0.0661,-0.0649,-0.0605,-0.0589,-0.0591,-0.0693,-0.0748,-0.0916,-0.0849,-0.0874,0,0,-0.0671,-0.0673,-0.0694,-0.0692,-0.0756,-0.0727,-0.0772,-0.0707,-0.0654,-0.0599,-0.0599,-0.07,-0.0752,-0.0921,-0.0933,-0.0956,0,0,0,-0.0696,-0.0708,-0.0732,-0.0761,-0.0796,-0.0828,-0.0776,-0.0771,-0.0744,-0.0652,-0.0698,-0.0728,-0.0832,-0.0776,-0.0794,-0.0597,-0.0597,-0.0597,-0.0597,-0.0693,-0.073,-0.0774,-0.0821,-0.0856,-0.0882,-0.0926,-0.0901,-0.0809,-0.0826,-0.0818,-0.1018,-0.0956,-0.097,-0.0807,-0.0808,-0.0808,-0.0809,-0.0809,-0.072,-0.0741,-0.08,-0.085,-0.0906,-0.0936,-0.1009,-0.0993,-0.1078,-0.0942,-0.1039,-0.0892,-0.0997,-0.0818,-0.0816,-0.0815,-0.0814,-0.0813,-0.0813,-0.0702,-0.0716,-0.0754,-0.083,-0.09,-0.095,-0.1079,-0.1114,-0.1181,-0.127,-0.1228,-0.1224,-0.1133,-0.1312,-0.1313,-0.1314,-0.1315,-0.1316,-0.1316,-0.0654,-0.0698,-0.0734,-0.0812,-0.0855,-0.0946,-0.1116,-0.1245,-0.1366,-0.1366,-0.1366,-0.1189,-0.1173,-0.1163,-0.1332,-0.1329,-0.1327,-0.1326,-0.1325,-0.0624,-0.0643,-0.069,-0.0735,-0.086,-0.0958,-0.1141,-0.1388,-0.1548,-0.1624,-0.1457,-0.1448,-0.1426,-0.1407,-0.1402,-0.1625,-0.1625,-0.1625,-0.1625,-0.0594,-0.0612,-0.0671,-0.0736,-0.0849,-0.0968,-0.118,-0.134,-0.1492,-0.1494,-0.1499,-0.132,-0.1311,-0.1271,-0.1255,-0.1242,-0.1424,-0.1424,-0.1423,-0.059,-0.0607,-0.0639,-0.0713,-0.0835,-0.0991,-0.1124,-0.1162,-0.1258,-0.1413,-0.1437,-0.1616,-0.1356,-0.1341,-0.1275,-0.1251,-0.1229,0,0]},{"header":{"parameterUnit":"m.s-1","parameterCategory":2,"la1":30.2992,"la2":30.254,"lo1":-89.0895,"lo2":-89.0443,"dy":0.0025,"dx":0.0025,"nx":19,"ny":19,"refTime":"2026-04-15T21:00:00:Z","depth":"2","parameterNumber":3,"parameterNumberName":"V-component_of_CURRENTS"},"data":[0,0,0,-0.0178,-0.0177,-0.0084,-0.0083,0.0172,0.0175,0,0,0,0,0,0,0,0,0,0,0,-0.0214,-0.0214,-0.0178,-0.0176,-0.0084,-0.0083,0.0172,0.0175,0,0,0,0,0,0,0,0,0,0,0,-0.0214,-0.0214,-0.0213,-0.0176,-0.0084,-0.0083,0.0171,0.007,0,0,0,0,0,0,0,0,0,0,-0.0036,-0.0081,-0.0214,-0.0213,-0.0176,-0.0084,-0.0083,0.0064,0.0077,0.0166,0,0.0167,0,0.0178,0.0194,0.0195,0,0,0,-0.0164,-0.0092,-0.0079,-0.0213,-0.0175,-0.0084,-0.0122,0.007,0.0084,0.0183,0.0171,0.0179,0.0183,0.0196,0.0197,0.0444,0.0445,0,0,-0.017,-0.0175,-0.009,-0.0071,-0.0163,-0.0125,-0.012,0.0077,0.0099,0.0171,0.0185,0.0187,0.0198,0.02,0.0443,0.0444,0,0,0,-0.0192,-0.0179,-0.0173,-0.0081,-0.0074,-0.0123,-0.0116,0.009,0.0087,0.0188,0.019,0.0199,0.0203,0.0443,0.0444,0.039,0,0,0,-0.0195,-0.0193,-0.0176,-0.0175,-0.008,-0.0006,-0.0108,0.0073,0.0095,0.0188,0.0199,0.0206,0.0442,0.0443,0.039,0.0315,0,0,0,-0.0216,-0.0194,-0.0192,-0.0176,-0.0143,-0.001,-0.0001,0.0077,0.0098,0.0195,0.0206,0.0442,0.0443,0.039,0.0318,0.0281,0,0,0,-0.0213,-0.023,-0.0192,-0.0195,-0.0145,-0.0101,-0.0003,0.0068,0.0143,0.0201,0.0442,0.0444,0.039,0.0319,0.0283,0.0229,0.0216,0,0,-0.0243,-0.0233,-0.0237,-0.0202,-0.0182,-0.0112,-0.0013,0.0132,0.0202,0.0389,0.0393,0.039,0.0318,0.0282,0.0307,0.0291,0,0,0,-0.0252,-0.0248,-0.024,-0.0208,-0.0167,-0.0072,0.0066,0.0146,0.0297,0.0251,0.0433,0.0389,0.0367,0.0341,0.033,0.045,0.045,0.045,0.0449,-0.0285,-0.0263,-0.0255,-0.0202,-0.0151,-0.0008,0.0068,0.0217,0.031,0.037,0.0379,0.0353,0.033,0.0319,0.0446,0.0446,0.0445,0.0445,0.0445,-0.0318,-0.0307,-0.0249,-0.0234,-0.0129,-0.003,0.0141,0.0216,0.0322,0.0391,0.0374,0.0327,0.0302,0.0442,0.0442,0.0443,0.0443,0.0444,0.0444,-0.0329,-0.0323,-0.0308,-0.0267,-0.0188,-0.0055,-0.0013,0.0116,0.0232,0.0226,0.021,0.0211,0.0267,0.0229,0.0229,0.0228,0.0228,0.0228,0.0227,-0.0351,-0.0337,-0.0351,-0.0307,-0.0293,-0.0244,-0.0125,-0.0088,0.0017,0.0115,0.0116,0.028,0.0287,0.0256,0.022,0.0221,0.0222,0.0223,0.0223,-0.0367,-0.0382,-0.0407,-0.0416,-0.0418,-0.0463,-0.0355,-0.0287,-0.0211,-0.0179,0.0067,0.0073,0.0071,0.0083,0.0049,-0.004,-0.004,-0.004,-0.004,-0.0395,-0.0399,-0.0465,-0.0516,-0.0561,-0.0563,-0.0615,-0.0449,-0.0234,-0.0087,-0.0085,-0.0026,-0.0015,-0.0017,-0.0003,-0.0037,-0.0147,-0.0147,-0.0147,-0.042,-0.0436,-0.05,-0.0561,-0.0631,-0.0703,-0.0753,-0.0529,-0.02,-0.0148,-0.0061,-0.0055,0.0042,0.0055,0.0064,0.0081,0.0032,0,0]}],[{"header":{"parameterUnit":"m.s-1","parameterCategory":2,"la1":30.2992,"la2":30.254,"lo1":-89.0895,"lo2":-89.0443,"dy":0.0025,"dx":0.0025,"nx":19,"ny":19,"refTime":"2026-04-15T21:00:00:Z","depth":"4","parameterNumber":2,"parameterNumberName":"U-component_of_CURRENTS"},"data":[0,0,0,-0.0976,-0.0978,-0.1066,-0.1066,-0.1115,-0.1115,0,0,0,0,0,0,0,0,0,0,0,-0.0945,-0.0946,-0.0976,-0.0978,-0.1066,-0.1066,-0.1115,-0.1115,0,0,0,0,0,0,0,0,0,0,0,-0.0945,-0.0946,-0.0946,-0.0978,-0.1065,-0.1066,-0.1115,-0.1064,0,0,0,0,0,0,0,0,0,0,-0.0986,-0.0973,-0.0945,-0.0947,-0.0979,-0.1065,-0.1066,-0.1062,-0.1067,-0.1057,0,-0.1077,0,-0.1097,-0.1117,-0.1117,0,0,0,-0.0976,-0.0969,-0.0988,-0.0947,-0.098,-0.1065,-0.1025,-0.1065,-0.107,-0.1064,-0.1078,-0.108,-0.1098,-0.1117,-0.1117,-0.1187,-0.1188,0,0,-0.0971,-0.0963,-0.0984,-0.0992,-0.1009,-0.1023,-0.1028,-0.1069,-0.1078,-0.1078,-0.1082,-0.1099,-0.1117,-0.1118,-0.1187,-0.1188,0,0,0,-0.0958,-0.096,-0.098,-0.0989,-0.101,-0.1025,-0.1032,-0.1077,-0.1083,-0.1082,-0.1099,-0.1117,-0.1118,-0.1186,-0.1187,-0.1224,0,0,0,-0.0955,-0.0953,-0.0977,-0.0974,-0.101,-0.1055,-0.1038,-0.108,-0.1085,-0.1099,-0.1118,-0.1118,-0.1186,-0.1187,-0.1222,-0.1306,0,0,0,-0.094,-0.0951,-0.0963,-0.0973,-0.1012,-0.1055,-0.1064,-0.1082,-0.1095,-0.1117,-0.1118,-0.1185,-0.1187,-0.122,-0.13,-0.1243,0,0,0,-0.0927,-0.0946,-0.0963,-0.099,-0.1012,-0.106,-0.1064,-0.1108,-0.113,-0.1118,-0.1186,-0.1187,-0.1219,-0.1297,-0.1241,-0.1104,0,0,0,-0.0939,-0.0948,-0.0962,-0.0979,-0.1012,-0.1047,-0.11,-0.1133,-0.1145,-0.1166,-0.1168,-0.1223,-0.13,-0.1242,-0.1182,0,0,0,0,-0.0957,-0.0962,-0.0977,-0.1004,-0.1044,-0.1098,-0.1133,-0.1159,-0.1211,-0.1165,-0.1239,-0.1288,-0.1249,-0.1165,-0.1193,-0.1193,-0.1193,-0.1193,-0.1193,-0.0944,-0.0963,-0.0983,-0.1015,-0.1057,-0.1135,-0.1184,-0.1229,-0.123,-0.127,-0.1326,-0.1336,-0.1251,-0.13,-0.1301,-0.1301,-0.1301,-0.1301,-0.1301,-0.0928,-0.0931,-0.0976,-0.1002,-0.1072,-0.1134,-0.124,-0.1276,-0.1368,-0.1382,-0.1337,-0.1225,-0.1305,-0.1304,-0.1304,-0.1303,-0.1303,-0.1303,-0.1303,-0.0892,-0.0898,-0.092,-0.0964,-0.1064,-0.1169,-0.125,-0.1384,-0.1413,-0.1452,-0.13,-0.1359,-0.1341,-0.1402,-0.1402,-0.1402,-0.1402,-0.1402,-0.1402,-0.0842,-0.0863,-0.0867,-0.0946,-0.0997,-0.1124,-0.1311,-0.1352,-0.1436,-0.1384,-0.1478,-0.1369,-0.1366,-0.1347,-0.1404,-0.1404,-0.1404,-0.1403,-0.1403,-0.0787,-0.0799,-0.0796,-0.0824,-0.094,-0.1013,-0.1195,-0.1275,-0.1284,-0.1275,-0.1282,-0.1288,-0.1257,-0.1256,-0.1232,-0.1257,-0.1256,-0.1254,0,-0.0744,-0.0751,-0.0726,-0.0749,-0.0786,-0.0951,-0.0939,-0.1038,-0.1135,-0.1088,-0.1233,-0.1234,-0.124,-0.1197,-0.1195,-0.1161,0,0,0,-0.07,-0.0701,-0.0662,-0.0691,-0.0719,-0.0835,-0.0939,-0.0938,-0.1134,-0.1168,-0.1215,-0.1225,-0.1343,-0.141,-0.1376,-0.1372,-0.1339,0,0]},{"header":{"parameterUnit":"m.s-1","parameterCategory":2,"la1":30.2992,"la2":30.254,"lo1":-89.0895,"lo2":-89.0443,"dy":0.0025,"dx":0.0025,"nx":19,"ny":19,"refTime":"2026-04-15T21:00:00:Z","depth":"4","parameterNumber":3,"parameterNumberName":"V-component_of_CURRENTS"},"data":[0,0,0,0.0038,0.0038,0.0079,0.0079,0.011,0.011,0,0,0,0,0,0,0,0,0,0,0,0.0022,0.0022,0.0038,0.0038,0.0079,0.0079,0.011,0.011,0,0,0,0,0,0,0,0,0,0,0,0.0022,0.0022,0.0023,0.0039,0.0079,0.0079,0.011,0.0086,0,0,0,0,0,0,0,0,0,0,0.0049,0.0034,0.0022,0.0023,0.0039,0.0079,0.0079,0.0085,0.0087,0.0084,0,0.0087,0,0.0097,0.0111,0.0111,0,0,0,0.0044,0.0032,0.0045,0.0023,0.0039,0.0079,0.0062,0.0086,0.0089,0.0087,0.0087,0.0089,0.0097,0.0111,0.0111,0.0131,0.0131,0,0,0.0041,0.0029,0.0043,0.0046,0.0045,0.0061,0.0063,0.0088,0.0087,0.0087,0.009,0.0098,0.0111,0.0111,0.0131,0.0131,0,0,0,0.0031,0.0028,0.004,0.0044,0.0052,0.0062,0.0065,0.0086,0.0091,0.009,0.0098,0.0111,0.0112,0.013,0.0131,0.0077,0,0,0,0.003,0.0022,0.0039,0.0032,0.0052,0.0072,0.0062,0.0089,0.0092,0.0098,0.0111,0.0112,0.013,0.0131,0.0079,0.006,0,0,0,0.0021,0.0021,0.0024,0.0031,0.0047,0.0072,0.0078,0.009,0.0097,0.0111,0.0112,0.013,0.013,0.008,0.0062,0.0025,0,0,0,0.001,0.0006,0.0024,0.0017,0.0047,0.0052,0.0079,0.009,0.01,0.0111,0.013,0.0131,0.008,0.0063,0.0026,0.0001,0,0,0,-0.0002,0.0005,-0.0001,0.0015,-0.0002,0.0047,0.0037,0.0066,0.0104,0.0121,0.0122,0.0078,0.0062,0.0025,0.0016,0,0,0,0,-0.001,-0.0019,-0.002,-0.0026,-0.0012,-0.0011,0.003,0.0055,0.0087,0.011,0.0098,0.009,0.0067,0.0059,0.0132,0.0132,0.0132,0.0132,0.0132,-0.0049,-0.0049,-0.0074,-0.0075,-0.0074,-0.0045,-0.0034,0.001,0.0055,0.0072,0.006,0.0017,0.0009,0.0076,0.0075,0.0075,0.0075,0.0075,0.0075,-0.009,-0.011,-0.0123,-0.0144,-0.0144,-0.0143,-0.0099,-0.0059,-0.0019,0.0035,0.0015,0.0023,0.007,0.0071,0.0071,0.0072,0.0072,0.0073,0.0073,-0.0118,-0.0131,-0.0145,-0.0191,-0.022,-0.0202,-0.0215,-0.0146,-0.0075,-0.0074,-0.0072,-0.0018,-0.0031,-0.0077,-0.0077,-0.0077,-0.0078,-0.0078,-0.0078,-0.014,-0.0158,-0.0199,-0.0242,-0.0279,-0.0299,-0.0266,-0.0241,-0.0164,-0.0127,-0.0079,-0.0034,-0.0029,-0.0038,-0.0082,-0.0081,-0.0081,-0.008,-0.008,-0.0177,-0.018,-0.0242,-0.0285,-0.0373,-0.0384,-0.0369,-0.0309,-0.029,-0.0245,-0.0165,-0.016,-0.0145,-0.0137,-0.015,-0.0229,-0.0229,-0.023,0,-0.0203,-0.0209,-0.029,-0.0368,-0.0437,-0.0441,-0.043,-0.0387,-0.0294,-0.0292,-0.027,-0.0182,-0.0177,-0.016,-0.0154,-0.0171,0,0,0,-0.0241,-0.0253,-0.0317,-0.0387,-0.0468,-0.0448,-0.0423,-0.04,-0.0317,-0.0289,-0.0243,-0.0239,-0.0158,-0.0093,-0.0058,-0.0052,-0.0065,0,0]}]]